EW7239 Weather Reports


time (UTC)temp
C
wind
direction
speed
KPH
gust
KPH
rain 1hr
cm
rain 24hr
cm
rain mn
cm
humidity
%
barometer
mb
20260831101547 21 250 1.6 4.8 0.00 0.00 0.00 82 1013.1
20260831101042 21 250 1.6 4.8 0.00 0.00 0.00 82 1013.0
20260831100542 21 250 1.6 4.8 0.00 0.00 0.00 82 1013.0
20260831100055 21 250 1.6 4.8 0.00 0.00 0.00 82 1013.0
20260831095542 21 250 1.6 4.8 0.00 0.00 0.00 82 1013.0
20260831095309 21 250 1.6 4.8 0.00 0.00 0.00 82 1012.9
20260831094538 21 250 1.6 3.2 0.00 0.00 0.00 82 1012.9
20260831094039 21 250 1.6 3.2 0.00 0.00 0.00 82 1013.0
20260831093034 21 250 1.6 3.2 0.00 0.00 0.00 82 1013.0
20260831092534 21 250 1.6 4.8 0.00 0.00 0.00 82 1013.0
20260831092035 21 250 1.6 4.8 0.00 0.00 0.00 82 1013.0
20260831091534 21 250 1.6 4.8 0.00 0.00 0.00 82 1013.0
20260831091041 21 250 1.6 4.8 0.00 0.00 0.00 81 1012.9
20260831090530 21 250 0.0 6.4 0.00 0.00 0.00 81 1012.9
20260831090030 21 250 1.6 6.4 0.00 0.00 0.00 81 1012.9
20260831085532 21 250 1.6 6.4 0.00 0.00 0.00 81 1012.8
20260831085255 21 250 1.6 8.0 0.00 0.00 0.00 81 1012.9
20260831084526 21 250 3.2 8.0 0.00 0.00 0.00 80 1012.9
20260831084026 21 250 1.6 6.4 0.00 0.00 0.00 80 1013.0
20260831083526 21 250 1.6 4.8 0.00 0.00 0.00 80 1013.0
20260831083025 21 250 1.6 4.8 0.00 0.00 0.00 79 1013.0
20260831082755 22 250 1.6 6.4 0.00 0.00 0.00 79 1013.1
20260831082025 22 250 3.2 6.4 0.00 0.00 0.00 79 1013.0
20260831081525 22 250 3.2 8.0 0.00 0.00 0.00 79 1013.1
20260831081255 22 250 3.2 8.0 0.00 0.00 0.00 79 1013.2
20260831080525 22 250 3.2 8.0 0.00 0.00 0.00 78 1013.2
20260831075526 22 250 3.2 8.0 0.00 0.00 0.00 78 1013.3
20260831075024 22 250 3.2 6.4 0.00 0.00 0.00 78 1013.3
20260831074526 22 250 3.2 6.4 0.00 0.00 0.00 78 1013.2
20260831074255 22 250 1.6 6.4 0.00 0.00 0.00 77 1013.3
20260831073526 22 250 1.6 6.4 0.00 0.00 0.00 77 1013.3
20260831073024 22 250 1.6 4.8 0.00 0.00 0.00 77 1013.2
20260831072525 22 250 1.6 4.8 0.00 0.00 0.00 76 1013.1
20260831072025 22 250 3.2 6.4 0.00 0.00 0.00 76 1013.1
20260831071525 22 250 1.6 6.4 0.00 0.00 0.00 76 1013.2
20260831071024 22 250 3.2 8.0 0.00 0.00 0.00 76 1013.1
20260831070757 22 250 1.6 8.0 0.00 0.00 0.00 76 1013.0
20260831070027 22 250 1.6 6.4 0.00 0.00 0.00 76 1013.0
20260831065756 22 250 1.6 4.8 0.00 0.00 0.00 76 1012.9
20260831065039 22 250 3.2 4.8 0.00 0.00 0.00 75 1012.9
20260831064527 22 250 3.2 6.4 0.00 0.00 0.00 74 1012.9
20260831064026 22 250 3.2 6.4 0.00 0.00 0.00 74 1012.9
20260831063524 23 250 3.2 6.4 0.00 0.00 0.00 74 1012.9
20260831063256 23 250 3.2 4.8 0.00 0.00 0.00 73 1012.9
20260831062755 23 250 1.6 4.8 0.00 0.00 0.00 72 1012.8
20260831062025 23 250 1.6 6.4 0.00 0.00 0.00 72 1012.9
20260831061522 23 250 3.2 9.7 0.00 0.00 0.00 72 1012.9
20260831061019 23 250 4.8 12.9 0.00 0.00 0.00 72 1012.7
20260831060518 23 250 4.8 12.9 0.00 0.00 0.00 72 1012.8
20260831060248 23 252 4.8 12.9 0.00 0.00 0.00 72 1012.9
20260831055517 23 251 4.8 12.9 0.00 0.00 0.00 72 1012.9
20260831055016 23 248 4.8 11.3 0.00 0.00 0.00 73 1012.8
20260831054515 23 248 4.8 11.3 0.00 0.00 0.00 73 1012.8
20260831054015 23 244 4.8 9.7 0.00 0.00 0.00 73 1012.9
20260831053516 23 244 3.2 9.7 0.00 0.00 0.00 72 1012.9
20260831053011 23 245 4.8 9.7 0.00 0.00 0.00 72 1012.9
20260831052751 23 245 4.8 11.3 0.00 0.00 0.00 72 1012.9
20260831052008 23 244 4.8 11.3 0.00 0.00 0.00 72 1012.9
20260831051508 23 243 6.4 12.9 0.00 0.00 0.00 72 1012.8
20260831051007 23 245 6.4 12.9 0.00 0.00 0.00 72 1012.8
20260831050509 23 242 4.8 14.5 0.00 0.00 0.00 71 1012.7
20260831050008 23 234 4.8 14.5 0.00 0.00 0.00 71 1012.8
20260831045508 23 249 4.8 11.3 0.00 0.00 0.00 70 1012.8
20260831045008 24 249 6.4 14.5 0.00 0.00 0.00 70 1012.7
20260831044506 24 252 6.4 14.5 0.00 0.00 0.00 70 1012.7
20260831044004 23 227 4.8 11.3 0.00 0.00 0.00 70 1012.6
20260831043504 23 225 4.8 9.7 0.00 0.00 0.00 70 1012.6
20260831043002 24 225 3.2 8.0 0.00 0.00 0.00 69 1012.5
20260831042500 24 225 4.8 9.7 0.00 0.00 0.00 69 1012.5
20260831042000 24 225 4.8 9.7 0.00 0.00 0.00 68 1012.5
20260831041948 24 225 6.4 14.5 0.00 0.00 0.00 68 1012.2
20260831041903 25 225 8.0 16.1 0.00 0.00 0.00 68 1012.1
20260831040727 25 214 8.0 16.1 0.00 0.00 0.00 67 1012.0
20260831035953 25 223 6.4 12.9 0.00 0.00 0.00 67 1012.0
20260831035451 25 225 6.4 14.5 0.00 0.00 0.00 67 1011.9
20260831034952 25 225 8.0 14.5 0.00 0.00 0.00 67 1011.9
20260831034451 25 219 6.4 12.9 0.00 0.00 0.00 67 1011.8
20260831033953 25 221 6.4 12.9 0.00 0.00 0.00 66 1011.6
20260831033450 25 216 8.0 17.7 0.00 0.00 0.00 66 1011.4
20260831032951 26 219 11.3 17.7 0.00 0.00 0.00 65 1011.3
20260831032448 26 221 11.3 19.3 0.00 0.00 0.00 65 1011.2
20260831031947 26 233 9.7 19.3 0.00 0.00 0.00 64 1011.2
20260831031448 26 215 9.7 16.1 0.00 0.00 0.00 64 1011.1
20260831030946 26 215 9.7 17.7 0.00 0.00 0.00 62 1011.0
20260831025944 26 217 11.3 17.7 0.00 0.00 0.00 60 1010.7
20260831025440 26 218 11.3 17.7 0.00 0.00 0.00 60 1010.7
20260831024938 27 230 11.3 19.3 0.00 0.00 0.00 59 1010.7
20260831024438 27 214 9.7 19.3 0.00 0.00 0.00 59 1010.7
20260831023939 27 223 11.3 20.9 0.00 0.00 0.00 57 1010.5
20260831023709 27 227 11.3 20.9 0.00 0.00 0.00 56 1010.5
20260831022933 27 205 12.9 22.5 0.00 0.00 0.00 55 1010.4
20260831022432 28 225 14.5 25.7 0.00 0.00 0.00 55 1010.4
20260831021933 28 221 12.9 25.7 0.00 0.00 0.00 54 1010.3
20260831021432 28 220 12.9 22.5 0.00 0.00 0.00 54 1010.3
20260831020930 28 219 14.5 25.7 0.00 0.00 0.00 53 1010.3
20260831020701 28 216 12.9 25.7 0.00 0.00 0.00 52 1010.3
20260831015929 29 221 12.9 24.1 0.00 0.00 0.00 51 1010.3
20260831015659 29 223 14.5 25.7 0.00 0.00 0.00 51 1010.3
20260831015156 29 221 14.5 25.7 0.00 0.00 0.00 50 1010.3
20260831014427 30 217 12.9 22.5 0.00 0.00 0.00 50 1010.3
20260831013919 30 211 12.9 22.5 0.00 0.00 0.00 49 1010.4
20260831013418 30 215 12.9 22.5 0.00 0.00 0.00 49 1010.4
20260831012918 30 219 14.5 27.4 0.00 0.00 0.00 49 1010.4
20260831012414 30 220 16.1 27.4 0.00 0.00 0.00 48 1010.4
20260831011914 30 221 16.1 22.5 0.00 0.00 0.00 48 1010.3
20260831011414 31 220 16.1 25.7 0.00 0.00 0.00 47 1010.3
20260831010911 31 216 16.1 25.7 0.00 0.00 0.00 47 1010.2
20260831010642 31 217 16.1 27.4 0.00 0.00 0.00 46 1010.2
20260831005909 31 220 16.1 27.4 0.00 0.00 0.00 46 1010.2
20260831005409 31 227 14.5 25.7 0.00 0.00 0.00 46 1010.3
20260831005142 31 232 16.1 25.7 0.00 0.00 0.00 46 1010.3
20260831004410 31 223 16.1 27.4 0.00 0.00 0.00 46 1010.2
20260831003910 31 197 14.5 27.4 0.00 0.00 0.00 46 1010.2
20260831003411 32 225 14.5 24.1 0.00 0.00 0.00 45 1010.2
20260831002910 32 216 16.1 30.6 0.00 0.00 0.00 44 1010.2
20260831002411 32 234 16.1 30.6 0.00 0.00 0.00 45 1010.3
20260831001909 32 231 14.5 27.4 0.00 0.00 0.00 45 1010.2
20260831001409 32 216 14.5 29.0 0.00 0.00 0.00 45 1010.2
20260831000909 32 226 16.1 29.0 0.00 0.00 0.00 45 1010.2
20260831000410 32 264 16.1 25.7 0.00 0.00 0.00 46 1010.2
20260830235909 32 228 17.7 25.7 0.00 0.00 0.00 46 1010.3
20260830235407 32 223 16.1 25.7 0.00 0.00 0.00 46 1010.3
20260830234907 32 221 14.5 25.7 0.00 0.00 0.00 45 1010.2
20260830234408 33 234 12.9 22.5 0.00 0.00 0.00 44 1010.2
20260830233909 33 242 14.5 29.0 0.00 0.00 0.00 44 1010.3
20260830233408 33 220 14.5 29.0 0.00 0.00 0.00 44 1010.3
20260830233140 33 214 14.5 27.4 0.00 0.00 0.00 42 1010.3
20260830232638 33 222 16.1 25.7 0.00 0.00 0.00 43 1010.3
20260830231907 33 217 14.5 25.7 0.00 0.00 0.00 43 1010.4
20260830230907 33 233 14.5 25.7 0.00 0.00 0.00 44 1010.3
20260830230408 33 227 14.5 25.7 0.00 0.00 0.00 43 1010.4
20260830225920 33 230 14.5 24.1 0.00 0.00 0.00 43 1010.4
20260830225408 33 241 16.1 30.6 0.00 0.00 0.00 44 1010.4
20260830224907 33 233 16.1 30.6 0.00 0.00 0.00 44 1010.4
20260830224406 33 211 14.5 24.1 0.00 0.00 0.00 44 1010.5
20260830223908 33 242 14.5 24.1 0.00 0.00 0.00 43 1010.6
20260830223403 33 222 14.5 25.7 0.00 0.00 0.00 46 1010.6
20260830222905 33 239 17.7 27.4 0.00 0.00 0.00 45 1010.6
20260830222402 33 219 17.7 27.4 0.00 0.00 0.00 45 1010.7
20260830221903 33 221 16.1 27.4 0.00 0.00 0.00 45 1010.8
20260830221401 33 205 14.5 27.4 0.00 0.00 0.00 43 1010.8
20260830220902 33 225 16.1 29.0 0.00 0.00 0.00 44 1010.9
20260830220402 33 223 17.7 29.0 0.00 0.00 0.00 44 1011.0
20260830220129 33 221 16.1 25.7 0.00 0.00 0.00 44 1011.0
20260830215357 34 226 16.1 32.2 0.00 0.00 0.00 43 1011.1
20260830214859 34 226 14.5 32.2 0.00 0.00 0.00 41 1011.2
20260830214354 34 232 14.5 29.0 0.00 0.00 0.00 42 1011.2
20260830213854 34 217 14.5 29.0 0.00 0.00 0.00 42 1011.3
20260830213625 34 223 14.5 30.6 0.00 0.00 0.00 42 1011.3
20260830213124 34 225 14.5 30.6 0.00 0.00 0.00 42 1011.3
20260830212351 35 250 14.5 30.6 0.00 0.00 0.00 42 1011.3
20260830211851 35 219 12.9 25.7 0.00 0.00 0.00 40 1011.4
20260830211351 35 237 14.5 25.7 0.00 0.00 0.00 39 1011.4
20260830210852 35 213 12.9 25.7 0.00 0.00 0.00 37 1011.4
20260830210351 35 223 12.9 22.5 0.00 0.00 0.00 37 1011.4
20260830210123 35 219 11.3 22.5 0.00 0.00 0.00 36 1011.5
20260830205352 35 217 11.3 24.1 0.00 0.00 0.00 37 1011.6
20260830204853 35 243 12.9 24.1 0.00 0.00 0.00 37 1011.7
20260830204351 35 229 11.3 19.3 0.00 0.00 0.00 36 1011.6
20260830203851 35 254 11.3 19.3 0.00 0.00 0.00 36 1011.6
20260830203351 35 249 9.7 19.3 0.00 0.00 0.00 37 1011.7
20260830202853 35 268 11.3 19.3 0.00 0.00 0.00 37 1011.7
20260830202351 35 221 11.3 19.3 0.00 0.00 0.00 37 1011.7
20260830201847 35 228 9.7 20.9 0.00 0.00 0.00 39 1011.7
20260830201348 35 225 9.7 20.9 0.00 0.00 0.00 40 1011.7
20260830200616 35 225 8.0 16.1 0.00 0.00 0.00 37 1011.8
20260830200115 35 235 8.0 12.9 0.00 0.00 0.00 37 1011.7
20260830195340 35 200 8.0 17.7 0.00 0.00 0.00 36 1011.7
20260830194839 35 241 8.0 17.7 0.00 0.00 0.00 36 1011.9
20260830194340 35 264 6.4 16.1 0.00 0.00 0.00 35 1011.9
20260830193612 35 235 6.4 14.5 0.00 0.00 0.00 33 1012.0
20260830192839 34 247 8.0 16.1 0.00 0.00 0.00 33 1012.0
20260830192340 34 225 9.7 16.1 0.00 0.00 0.00 34 1012.1
20260830191841 34 203 6.4 14.5 0.00 0.00 0.00 36 1012.1
20260830191338 33 215 4.8 11.3 0.00 0.00 0.00 38 1012.2
20260830190837 33 238 6.4 11.3 0.00 0.00 0.00 38 1012.3
20260830190351 33 237 6.4 11.3 0.00 0.00 0.00 38 1012.3
20260830185839 33 240 3.2 11.3 0.00 0.00 0.00 38 1012.5
20260830185338 33 223 4.8 11.3 0.00 0.00 0.00 38 1012.6
20260830184839 33 220 4.8 11.3 0.00 0.00 0.00 40 1012.6
20260830184338 33 205 4.8 11.3 0.00 0.00 0.00 41 1012.7
20260830183837 32 219 4.8 9.7 0.00 0.00 0.00 41 1012.7
20260830183336 32 219 3.2 9.7 0.00 0.00 0.00 42 1012.7
20260830182837 32 221 6.4 11.3 0.00 0.00 0.00 42 1012.8
20260830182336 32 221 4.8 11.3 0.00 0.00 0.00 44 1012.8
20260830181836 32 223 3.2 9.7 0.00 0.00 0.00 44 1012.8
20260830181337 32 222 4.8 9.7 0.00 0.00 0.00 43 1012.7
20260830180837 32 223 3.2 9.7 0.00 0.00 0.00 44 1012.8
20260830180333 32 225 4.8 9.7 0.00 0.00 0.00 45 1012.7
20260830175835 31 225 3.2 9.7 0.00 0.00 0.00 46 1012.7
20260830175332 31 211 3.2 8.0 0.00 0.00 0.00 47 1012.7
20260830174833 31 211 3.2 9.7 0.00 0.00 0.00 47 1012.8
20260830174329 31 211 3.2 9.7 0.00 0.00 0.00 48 1012.8
20260830173828 30 212 3.2 9.7 0.00 0.00 0.00 49 1012.9
20260830173328 30 212 3.2 9.7 0.00 0.00 0.00 50 1012.9
20260830172829 30 228 4.8 8.0 0.00 0.00 0.00 52 1013.0
20260830172328 30 228 3.2 8.0 0.00 0.00 0.00 52 1012.9
20260830171828 30 230 3.2 8.0 0.00 0.00 0.00 53 1012.8
20260830171556 29 230 3.2 9.7 0.00 0.00 0.00 53 1012.9
20260830170825 29 231 3.2 9.7 0.00 0.00 0.00 54 1012.9
20260830170323 29 231 1.6 8.0 0.00 0.00 0.00 55 1012.9
20260830165824 28 231 3.2 8.0 0.00 0.00 0.00 56 1012.9
20260830165323 28 231 3.2 8.0 0.00 0.00 0.00 58 1012.9
20260830164823 28 231 3.2 6.4 0.00 0.00 0.00 58 1012.9
20260830164321 28 230 1.6 6.4 0.00 0.00 0.00 59 1012.9
20260830164050 28 231 3.2 6.4 0.00 0.00 0.00 60 1013.0
20260830163320 28 230 1.6 6.4 0.00 0.00 0.00 60 1012.9
20260830162817 27 231 1.6 6.4 0.00 0.00 0.00 61 1012.9
20260830162316 27 231 1.6 6.4 0.00 0.00 0.00 63 1012.9
20260830161816 27 231 1.6 6.4 0.00 0.00 0.00 65 1013.0
20260830161328 26 231 3.2 6.4 0.00 0.00 0.00 65 1013.0
20260830160813 26 231 3.2 4.8 0.00 0.00 0.00 66 1013.0
20260830160310 26 231 1.6 6.4 0.00 0.00 0.00 67 1013.0
20260830155810 26 231 1.6 6.4 0.00 0.00 0.00 68 1013.0
20260830155541 26 231 0.0 0.0 0.00 0.00 0.00 68 1013.1
20260830154809 26 231 0.0 0.0 0.00 0.00 0.00 71 1013.2
20260830154308 25 231 0.0 0.0 0.00 0.00 0.00 72 1013.2
20260830153809 25 231 0.0 0.0 0.00 0.00 0.00 74 1013.2
20260830153308 25 231 0.0 0.0 0.00 0.00 0.00 77 1013.2
20260830152806 24 231 0.0 0.0 0.00 0.00 0.00 77 1013.1
20260830152548 23 231 0.0 0.0 0.00 0.00 0.00 78 1013.1
20260830151804 23 231 0.0 0.0 0.00 0.00 0.00 79 1013.1
20260830151259 23 231 0.0 0.0 0.00 0.00 0.00 81 1013.2
20260830150300 23 231 0.0 0.0 0.00 0.00 0.00 81 1013.2
20260830145755 23 231 0.0 0.0 0.00 0.00 0.00 82 1013.3
20260830145523 22 231 0.0 0.0 0.00 0.00 0.00 82 1013.3
20260830144752 22 231 0.0 1.6 0.00 0.00 0.00 82 1013.3
20260830144250 22 231 0.0 1.6 0.00 0.00 0.00 82 1013.2
20260830143748 22 231 0.0 3.2 0.00 0.00 0.00 82 1013.2
20260830143247 22 231 0.0 3.2 0.00 0.00 0.00 82 1013.2
20260830142746 22 231 0.0 1.6 0.00 0.00 0.00 82 1013.2
20260830142245 22 231 0.0 0.0 0.00 0.00 0.00 82 1013.1
20260830141743 22 231 0.0 1.6 0.00 0.00 0.00 82 1013.1
20260830141243 22 231 0.0 1.6 0.00 0.00 0.00 82 1013.1
20260830140741 22 231 0.0 0.0 0.00 0.00 0.00 82 1013.0
20260830140240 22 231 0.0 3.2 0.00 0.00 0.00 82 1013.0
20260830135740 22 231 1.6 3.2 0.00 0.00 0.00 82 1013.0
20260830135239 22 231 1.6 3.2 0.00 0.00 0.00 82 1013.0
20260830134741 22 230 0.0 3.2 0.00 0.00 0.00 82 1012.9
20260830133737 22 231 0.0 3.2 0.00 0.00 0.00 81 1012.8
20260830133237 22 231 0.0 3.2 0.00 0.00 0.00 81 1012.8
20260830132738 22 231 0.0 0.0 0.00 0.00 0.00 81 1012.7
20260830132238 22 231 0.0 0.0 0.00 0.00 0.00 81 1012.7
20260830131751 22 231 0.0 1.6 0.00 0.00 0.00 81 1012.7
20260830131237 22 231 0.0 1.6 0.00 0.00 0.00 81 1012.7
20260830131009 22 231 0.0 0.0 0.00 0.00 0.00 81 1012.6
20260830130237 22 231 0.0 0.0 0.00 0.00 0.00 81 1012.6
20260830125737 22 231 0.0 1.6 0.00 0.00 0.00 79 1012.6
20260830125236 22 231 0.0 1.6 0.00 0.00 0.00 80 1012.6
20260830124734 22 231 0.0 3.2 0.00 0.00 0.00 80 1012.5
20260830124234 22 231 0.0 3.2 0.00 0.00 0.00 80 1012.5
20260830123732 22 231 0.0 3.2 0.00 0.00 0.00 80 1012.3
20260830123229 22 231 0.0 3.2 0.00 0.00 0.00 80 1012.3
20260830122730 22 231 0.0 1.6 0.00 0.00 0.00 80 1012.2
20260830122228 22 231 0.0 1.6 0.00 0.00 0.00 79 1012.1
20260830121727 22 231 0.0 1.6 0.00 0.00 0.00 79 1012.0
20260830121226 22 231 0.0 0.0 0.00 0.00 0.00 78 1012.0
20260830120725 22 230 0.0 0.0 0.00 0.00 0.00 79 1012.0
20260830120238 22 231 0.0 0.0 0.00 0.00 0.00 79 1011.9
20260830115726 22 231 0.0 0.0 0.00 0.00 0.00 79 1012.0
20260830115224 22 231 0.0 0.0 0.00 0.00 0.00 78 1012.0
20260830114723 22 231 0.0 0.0 0.00 0.00 0.00 78 1012.0
20260830114223 22 231 0.0 1.6 0.00 0.00 0.00 78 1011.9
20260830113721 22 231 0.0 1.6 0.00 0.00 0.00 77 1012.0
20260830113219 22 231 0.0 1.6 0.00 0.00 0.00 77 1012.1
20260830112718 22 231 0.0 1.6 0.00 0.00 0.00 77 1012.1
20260830112213 22 230 0.0 3.2 0.00 0.00 0.00 77 1012.0
20260830111715 23 231 1.6 3.2 0.00 0.00 0.00 76 1012.1
20260830111214 23 231 1.6 3.2 0.00 0.00 0.00 76 1012.1
20260830110708 23 231 0.0 4.8 0.00 0.00 0.00 76 1012.0
20260830110205 23 231 1.6 4.8 0.00 0.00 0.00 76 1012.0
20260830105705 23 231 1.6 4.8 0.00 0.00 0.00 76 1012.0
20260830105204 23 231 1.6 4.8 0.00 0.00 0.00 76 1012.0
20260830104702 23 231 1.6 4.8 0.00 0.00 0.00 76 1011.9
20260830104202 23 231 1.6 4.8 0.00 0.00 0.00 76 1011.9
20260830103656 23 231 0.0 4.8 0.00 0.00 0.00 76 1011.9
20260830103154 23 231 0.0 4.8 0.00 0.00 0.00 76 1012.0
20260830102153 23 231 1.6 4.8 0.00 0.00 0.00 75 1011.9